East Milton, MA

6:36 AM EDT on May 26, 2017 (GMT -0400)
East Milton

Weather History for KMQE - October, 2012

Change the Weather History Date:

Wednesday, October 3, 2012

  Actual Average (KOWD) Record (KOWD)
Temperature  
Mean Temperature 60 °F -  
Max Temperature 62 °F 64 °F 81 °F (2000)
Min Temperature 59 °F 39 °F 30 °F (2003)
Degree Days  
Heating Degree Days 5    
Growing Degree Days 10 (Base 50)    
Moisture  
Dew Point 58 °F    
Average Humidity 95    
Maximum Humidity 97    
Minimum Humidity 90    
Precipitation  
Precipitation 0.01 in - - ()
Sea Level Pressure  
Sea Level Pressure 30.12 in    
Wind  
Wind Speed 8 mph (ENE)    
Max Wind Speed 12 mph    
Max Gust Speed 17 mph    
Averages and records for this station are not official NWS values.
T = Trace of Precipitation, MM = Missing Value Source: NWS Daily Summary

Daily Weather History Graph

Daily Weather History Graph

Search for Another Location

Airport or City:

Trip Planner

Search our weather history database for the weather conditions in past years. The results will help you decide how hot, cold, wet, or windy it might be!

Date:

Astronomy

Oct. 03, 2012 Rise Set
Actual Time 6:44 AM EDT 6:21 PM EDT
Civil Twilight 6:16 AM EDT 6:49 PM EDT
Nautical Twilight 5:43 AM EDT 7:22 PM EDT
Astronomical Twilight 5:10 AM EDT 7:54 PM EDT
Moon 8:07 PM EDT (10/3) 10:08 AM EDT (10/3)
Length of Visible Light 12h 33m
Length of Day
11h 37m
Waning Gibbous, 89% of the Moon is Illuminated
Oct 3
Waning Gibbous
Oct 8
Last Quarter
Oct 15
New
Oct 21
First Quarter
Oct 29
Full

Hourly Weather History & Observations

Time (EDT) Temp. Dew Point Humidity Pressure Visibility Wind Dir Wind Speed Gust Speed Precip Events Conditions
12:54 AM 60.1 °F 57.9 °F 93% 30.08 in - East 3.5 mph - N/A   Unknown
1:54 AM 60.1 °F 57.9 °F 93% 30.07 in - East 6.9 mph - N/A   Unknown
2:54 AM 60.1 °F 57.9 °F 93% 30.06 in - East 9.2 mph - N/A   Unknown
3:54 AM 60.1 °F 57.9 °F 93% 30.07 in - East 5.8 mph - N/A   Unknown
4:54 AM 60.1 °F 57.9 °F 93% 30.07 in - East 9.2 mph - N/A   Unknown
5:54 AM 60.1 °F 57.0 °F 90% 30.09 in - ENE 9.2 mph - N/A   Unknown
6:54 AM 59.0 °F 57.0 °F 93% 30.10 in - East 11.5 mph - N/A   Unknown
7:54 AM 59.0 °F 57.0 °F 93% 30.12 in - ENE 8.1 mph - N/A   Unknown
8:54 AM 60.1 °F 57.9 °F 93% 30.13 in - ENE 8.1 mph - N/A   Unknown
9:54 AM 61.0 °F 60.1 °F 97% 30.13 in - Variable 6.9 mph - N/A   Unknown
10:54 AM 61.0 °F 60.1 °F 97% 30.12 in - ENE 8.1 mph - N/A   Unknown
11:54 AM 61.0 °F 60.1 °F 97% 30.12 in - NE 5.8 mph - N/A   Unknown
12:54 PM 60.1 °F 59.0 °F 96% 30.13 in - NE 9.2 mph - 0.01 in   Unknown
1:54 PM 61.0 °F 59.0 °F 93% 30.12 in - ENE 11.5 mph - N/A   Unknown
2:54 PM 61.0 °F 60.1 °F 97% 30.12 in - NE 8.1 mph - N/A   Unknown
3:54 PM 60.1 °F 59.0 °F 96% 30.12 in - NE 11.5 mph - N/A   Unknown
4:54 PM 60.1 °F 57.9 °F 93% 30.12 in - NE 11.5 mph 17.3 mph N/A   Unknown
5:54 PM 59.0 °F 57.9 °F 96% 30.14 in - NE 10.4 mph - N/A   Unknown
6:54 PM 59.0 °F 57.9 °F 96% 30.15 in - NE 6.9 mph - N/A   Unknown
7:54 PM 59.0 °F 57.9 °F 96% 30.15 in - NE 10.4 mph - N/A   Unknown
8:54 PM 59.0 °F 57.9 °F 96% 30.17 in - NE 9.2 mph - N/A   Unknown
9:54 PM 59.0 °F 57.9 °F 96% 30.18 in - NE 8.1 mph - N/A   Unknown
10:54 PM 59.0 °F 57.9 °F 96% 30.18 in - NE 6.9 mph - N/A   Unknown
11:54 PM 59.0 °F 57.9 °F 96% 30.19 in - NNE 6.9 mph - N/A   Unknown